カタログに戻る

STARLINK-37344

運用中通信SSO
NORAD 68744·PAYLOAD·🇺🇸 United States

打ち上げ Apr 15, 2026 から Vandenberg Space Force Base

Loading…

次のパス (今後24時間)

TLE

最新Source: CelesTrak SupGP

元期: Sep 15, 2026, 03:20 UTC

1 68744C 26082S   26258.13937500  .00076562  00000+0  23773-2 0  2585
2 68744  97.2844 120.3892 0001655  89.5316 337.3916 15.33391429    12

AllMySatでSTARLINK-37344をリアルタイム追跡

Download on the App Store